Other Surface Observations
Issued by NWS Tucson, AZ

Home | Current Version | Previous Version | Text Only | Print | Product List | Glossary On
Versions: 1 2 3 4 5 6 7 8 9 10 11 12 13 14 15 16 17 18 19 20 21 22 23 24 25 26 27 28 29 30 31 32 33 34 35 36 37 38 39 40 41 42 43 44 45 46 47 48 49 50
000
SXUS55 KTWC 230015
OSOTWC

WEATHER ROUNDUP FOR SOUTHEAST ARIZONA
NATIONAL WEATHER SERVICE TUCSON AZ
515 PM MST MON DEC 22 2014

AZZ504>506-514-230115-
LOCATION       SKY/WX    TMP DP  RH WIND       PRES   REMARKS
TUCSON         CLEAR     63  40  42 NW6       29.93S
DAVIS-MONTHAN  CLEAR     61  40  45 NW8       29.90S
CHILDRENS PARK N/A       63  39  41 NW7               PIMA CO DEQ
ALVERNON/22ND  N/A      N/A N/A N/A N/A               PIMA CO DEQ
CHERRY/GLENN   N/A      N/A N/A N/A N/A               PIMA CO DEQ
TANGERINE      N/A       63 N/A N/A W4                PIMA CO DEQ
CONTL RANCH    N/A       64  41  43 NW4               PIMA CO DEQ
GRANT/1ST      N/A       64  40  41 NW7               PIMA CO DEQ
CRAYCROFT/22ND N/A      N/A N/A N/A N/A               PIMA CO DEQ
GOLFLINKS/KOLB N/A       64  40  41 W5                PIMA CO DEQ
AJO/12TH       N/A       65  39  39 W3                PIMA CO DEQ
SAGUARO EAST   N/A      N/A N/A N/A N/A               PIMA CO DEQ
FAIRGROUNDS    N/A       63 N/A N/A W9                PIMA CO DEQ
SAGUARO        N/A       64  39  39 W5                *SABINO CYN
SAN CARLOS     N/A       62  41  46 S9G14             *SAN CARLOS
GREEN VALLEY   N/A       68  37  32 N5                PIMA CO DEQ
HORSE CAMP CYN N/A       55  39  55 W11G20            *ARAVAIPA CYN
RINCON MTNS    N/A       42  30  61 NW3G10            *NR MANNING CAMP
$$

AZZ509>511-230115-
LOCATION       SKY/WX    TMP DP  RH WIND       PRES   REMARKS
SAFFORD        CLEAR     60  39  45 NW17G23   29.81F
STRAY HORSE    N/A       51  21  31 NW12G28           *
TRAIL CABIN    N/A       54  31  41 W10G21            *N OF GRANVILLE
BLACK HILLS    N/A       58  39  50 N10G21            *N OF FT THOMAS
DRY LAKE       N/A       47  33  57 NW4G12            *NATANES MTNS
NOON CREEK     N/A       48  38  69 SW4               *PINALENO MTNS
COLUMBINE      N/A       49  18  29 NE3G21            *PINALENO MTNS
GUTHRIE        N/A       50  34  54 W29G42            *SW OF GUTHRIE
$$

AZZ502-503-513-230115-
LOCATION       SKY/WX    TMP DP  RH WIND       PRES   REMARKS
NOGALES        CLEAR     63  35  35 NW6       29.93S
SELLS          N/A       66  40  38 W7G11             *
SASABE         N/A       67  38  35 NE5G10            *ALTAR VLY
HOPKINS        N/A       54  30  40 W17G29            *SANTA RITA MTNS
CARR CYN       N/A       57  32  38 S5G11             *W OF HEREFORD
$$

AZZ507-508-512-230115-
LOCATION       SKY/WX    TMP DP  RH WIND       PRES   REMARKS
SIERRA VISTA   CLEAR     57  34  41 W10       29.95R
DOUGLAS        CLEAR     62  35  36 NW13G21   29.90R
EMPIRE MTNS    N/A       57  35  44 NW8G20            *LAS CIENEGAS NCA
MULESHOE RANCH N/A       57  38  48 NW15G21           *PRESERVE
HEADQUARTERS   N/A       57  35  43 W4G17             *CHIRICAHUA MTNS
$$

.............................NOTES.............................
THIS IS AN AUTOMATED COLLECTIVE WITH MINIMAL QUALITY CONTROL.
PIMA CO DEQ SITES HAVE NONSTANDARD WIND SENSOR HEIGHTS.
PIMA CO DEQ SITES DO NOT REPORT WIND GUSTS.
* INDICATES WIND SENSORS LOCATED AT 20 FEET INSTEAD OF 33 FEET.
..............................KEY..............................
SKY/WX - SKY CONDITION/WEATHER
TMP    - TEMPERATURE IN FAHRENHEIT
DP     - DEWPOINT IN FAHRENHEIT
RH     - RELATIVE HUMIDITY IN PERCENT
WIND   - DIRECTION AND SPEED IN MILES PER HOUR (MPH)
VRB    - VARIABLE WIND DIRECTION
PRES   - MEAN SEA LEVEL PRESSURE IN INCHES OF MERCURY
         F - FALLING PRESSURE   R - RISING PRESSURE
         S - STEADY PRESSURE
VSB    - VISIBILITY IN MILES
HX     - HEAT INDEX IN FAHRENHEIT
WCI    - WIND CHILL INDEX IN FAHRENHEIT
N/A    - NOT AVAILABLE
AFB    - AIR FORCE BASE
         DAVIS-MONTHAN IS DAVIS-MONTHAN AIR FORCE BASE
CYN    - CANYON
MTNS   - MOUNTAINS
NCA    - NATIONAL CONSERVATION AREA
NR     - NEAR
VLY    - VALLEY
CONTL  - CONTINENTAL
PIMA CO DEQ - PIMA COUNTY DEPT OF ENVIRONMENTAL QUALITY



USA.gov is the U.S. government's official web portal to all federal, state and local government web resources and services.